{"data":{"norad_id":62010,"intl_designator":"2024-213C","name":"STARLINK-11326 [DTC]","alt_names":[],"object_type":"PAYLOAD","status":"ACTIVE","operator":null,"country":"US","launch_date":"2024-11-18","launch_site_code":"AFWTR","launch_vehicle":null,"mission":null,"orbit_class":"UNKNOWN","rcs_meters":null,"size_class":null,"mass_kg":null,"dimensions":null,"purposes":["comms"],"wikipedia_slug":null,"has_3d_model":false,"image_url":null,"decayed_at":null,"tle_current":{"epoch":"2026-05-24T23:03:16.049088Z","epoch_age_seconds":75107,"freshness":"FRESH","line1":"1 62010U 24213C   26144.96060242  .00222912  00000+0  17930-2 0  9996","line2":"2 62010  53.1579  25.3245 0000924  65.7087 294.4027 15.69747421 86895","mean_motion":15.69747421,"eccentricity":9.24e-5,"inclination_deg":53.1579,"raan_deg":25.3245,"arg_perigee_deg":65.7087,"mean_anomaly_deg":294.4027,"bstar":0.001793,"rev_number":8689,"period_min":91.734503317907,"perigee_km":358.99709925298,"apogee_km":360.24223668522,"semimajor_km":6737.7566679691,"source":"CELESTRAK","updated_at":"2026-05-25T13:38:19.518651Z"}}}